owner,sensor,date,latitude,longitude,vertical_datum,sea_water_temperature,qcFlag 
WAVCIS,ioos:station:WAVCIS:CSI16:1,2009-05-01T00:00:00Z,29.4012,-89.0355,10.0,24.261,11111222 
WAVCIS,ioos:station:WAVCIS:CSI16:1,2009-05-01T00:15:00Z,29.4012,-89.0355,10.0,24.235,11111222 
WAVCIS,ioos:station:WAVCIS:CSI16:1,2009-05-01T00:30:00Z,29.4012,-89.0355,10.0,24.207,11111222 
WAVCIS,ioos:station:WAVCIS:CSI16:1,2009-05-01T00:45:00Z,29.4012,-89.0355,10.0,24.181,11111222 
WAVCIS,ioos:station:WAVCIS:CSI16:1,2009-05-01T01:00:00Z,29.4012,-89.0355,10.0,24.161,11111222 
WAVCIS,ioos:station:WAVCIS:CSI16:1,2009-05-01T01:15:00Z,29.4012,-89.0355,10.0,24.121,11111222 
WAVCIS,ioos:station:WAVCIS:CSI16:1,2009-05-01T01:30:00Z,29.4012,-89.0355,10.0,24.215,11111222 
WAVCIS,ioos:station:WAVCIS:CSI16:1,2009-05-01T01:45:00Z,29.4012,-89.0355,10.0,24.141,11111222 
WAVCIS,ioos:station:WAVCIS:CSI16:1,2009-05-01T02:00:00Z,29.4012,-89.0355,10.0,24.399,11111222 
WAVCIS,ioos:station:WAVCIS:CSI16:1,2009-05-01T02:15:00Z,29.4012,-89.0355,10.0,24.189,11111222 
WAVCIS,ioos:station:WAVCIS:CSI16:1,2009-05-01T02:30:00Z,29.4012,-89.0355,10.0,23.973,11111222 
WAVCIS,ioos:station:WAVCIS:CSI16:1,2009-05-01T02:45:00Z,29.4012,-89.0355,10.0,24.048,11111222 
WAVCIS,ioos:station:WAVCIS:CSI16:1,2009-05-01T03:00:00Z,29.4012,-89.0355,10.0,24.042,11111222 
WAVCIS,ioos:station:WAVCIS:CSI16:1,2009-05-01T03:15:00Z,29.4012,-89.0355,10.0,23.984,11111222 
WAVCIS,ioos:station:WAVCIS:CSI16:1,2009-05-01T03:30:00Z,29.4012,-89.0355,10.0,23.922,11111222 
WAVCIS,ioos:station:WAVCIS:CSI16:1,2009-05-01T03:45:00Z,29.4012,-89.0355,10.0,23.889,11111222 
WAVCIS,ioos:station:WAVCIS:CSI16:1,2009-05-01T04:00:00Z,29.4012,-89.0355,10.0,23.905,11111222 
WAVCIS,ioos:station:WAVCIS:CSI16:1,2009-05-01T04:15:00Z,29.4012,-89.0355,10.0,23.882,11111222 
WAVCIS,ioos:station:WAVCIS:CSI16:1,2009-05-01T04:30:00Z,29.4012,-89.0355,10.0,23.835,11111222 
WAVCIS,ioos:station:WAVCIS:CSI16:1,2009-05-01T04:45:00Z,29.4012,-89.0355,10.0,23.814,11111222 
WAVCIS,ioos:station:WAVCIS:CSI16:1,2009-05-01T05:00:00Z,29.4012,-89.0355,10.0,23.825,11111222 
WAVCIS,ioos:station:WAVCIS:CSI16:1,2009-05-01T05:15:00Z,29.4012,-89.0355,10.0,23.85,11111222 
WAVCIS,ioos:station:WAVCIS:CSI16:1,2009-05-01T05:30:00Z,29.4012,-89.0355,10.0,23.854,11111222 
WAVCIS,ioos:station:WAVCIS:CSI16:1,2009-05-01T05:45:00Z,29.4012,-89.0355,10.0,23.902,11111222 
WAVCIS,ioos:station:WAVCIS:CSI16:1,2009-05-01T06:00:00Z,29.4012,-89.0355,10.0,23.907,11111222 
WAVCIS,ioos:station:WAVCIS:CSI16:1,2009-05-01T06:15:00Z,29.4012,-89.0355,10.0,23.962,11111222 
WAVCIS,ioos:station:WAVCIS:CSI16:1,2009-05-01T06:30:00Z,29.4012,-89.0355,10.0,24.02,11111222 
WAVCIS,ioos:station:WAVCIS:CSI16:1,2009-05-01T06:45:00Z,29.4012,-89.0355,10.0,24.006,11111222 
WAVCIS,ioos:station:WAVCIS:CSI16:1,2009-05-01T07:00:00Z,29.4012,-89.0355,10.0,24.018,11111222 
WAVCIS,ioos:station:WAVCIS:CSI16:1,2009-05-01T07:15:00Z,29.4012,-89.0355,10.0,23.988,11111222 
WAVCIS,ioos:station:WAVCIS:CSI16:1,2009-05-01T07:30:00Z,29.4012,-89.0355,10.0,23.977,11111222 
WAVCIS,ioos:station:WAVCIS:CSI16:1,2009-05-01T07:45:00Z,29.4012,-89.0355,10.0,23.979,11111222 
WAVCIS,ioos:station:WAVCIS:CSI16:1,2009-05-01T08:00:00Z,29.4012,-89.0355,10.0,24.038,11111222 
WAVCIS,ioos:station:WAVCIS:CSI16:1,2009-05-01T08:15:00Z,29.4012,-89.0355,10.0,24.017,11111222 
WAVCIS,ioos:station:WAVCIS:CSI16:1,2009-05-01T08:30:00Z,29.4012,-89.0355,10.0,23.386,11111222 
WAVCIS,ioos:station:WAVCIS:CSI16:1,2009-05-01T08:45:00Z,29.4012,-89.0355,10.0,23.244,11111222 
WAVCIS,ioos:station:WAVCIS:CSI16:1,2009-05-01T09:00:00Z,29.4012,-89.0355,10.0,23.153,11111222 
WAVCIS,ioos:station:WAVCIS:CSI16:1,2009-05-01T09:15:00Z,29.4012,-89.0355,10.0,23.373,11111222 
WAVCIS,ioos:station:WAVCIS:CSI16:1,2009-05-01T09:30:00Z,29.4012,-89.0355,10.0,23.413,11111222 
WAVCIS,ioos:station:WAVCIS:CSI16:1,2009-05-01T09:45:00Z,29.4012,-89.0355,10.0,23.323,11111222 
WAVCIS,ioos:station:WAVCIS:CSI16:1,2009-05-01T10:00:00Z,29.4012,-89.0355,10.0,23.356,11111222 
WAVCIS,ioos:station:WAVCIS:CSI16:1,2009-05-01T10:15:00Z,29.4012,-89.0355,10.0,23.287,11111222 
WAVCIS,ioos:station:WAVCIS:CSI16:1,2009-05-01T10:30:00Z,29.4012,-89.0355,10.0,23.486,11111222 
WAVCIS,ioos:station:WAVCIS:CSI16:1,2009-05-01T10:45:00Z,29.4012,-89.0355,10.0,23.498,11111222 
WAVCIS,ioos:station:WAVCIS:CSI16:1,2009-05-01T11:00:00Z,29.4012,-89.0355,10.0,23.666,11111222 
WAVCIS,ioos:station:WAVCIS:CSI16:1,2009-05-01T11:15:00Z,29.4012,-89.0355,10.0,23.618,11111222 
WAVCIS,ioos:station:WAVCIS:CSI16:1,2009-05-01T11:30:00Z,29.4012,-89.0355,10.0,23.503,11111222 
WAVCIS,ioos:station:WAVCIS:CSI16:1,2009-05-01T11:45:00Z,29.4012,-89.0355,10.0,23.602,11111222 
WAVCIS,ioos:station:WAVCIS:CSI16:1,2009-05-01T12:00:00Z,29.4012,-89.0355,10.0,23.928,11111222 
WAVCIS,ioos:station:WAVCIS:CSI16:1,2009-05-01T12:15:00Z,29.4012,-89.0355,10.0,23.435,11111222 
WAVCIS,ioos:station:WAVCIS:CSI16:1,2009-05-01T12:30:00Z,29.4012,-89.0355,10.0,23.535,11111222 
WAVCIS,ioos:station:WAVCIS:CSI16:1,2009-05-01T12:45:00Z,29.4012,-89.0355,10.0,23.649,11111222 
WAVCIS,ioos:station:WAVCIS:CSI16:1,2009-05-01T13:00:00Z,29.4012,-89.0355,10.0,23.602,11111222 
WAVCIS,ioos:station:WAVCIS:CSI16:1,2009-05-01T13:15:00Z,29.4012,-89.0355,10.0,23.638,11111222 
WAVCIS,ioos:station:WAVCIS:CSI16:1,2009-05-01T13:30:00Z,29.4012,-89.0355,10.0,23.741,11111222 
WAVCIS,ioos:station:WAVCIS:CSI16:1,2009-05-01T13:45:00Z,29.4012,-89.0355,10.0,23.713,11111222 
WAVCIS,ioos:station:WAVCIS:CSI16:1,2009-05-01T14:00:00Z,29.4012,-89.0355,10.0,23.914,11111222 
WAVCIS,ioos:station:WAVCIS:CSI16:1,2009-05-01T14:15:00Z,29.4012,-89.0355,10.0,23.979,11111222 
WAVCIS,ioos:station:WAVCIS:CSI16:1,2009-05-01T14:30:00Z,29.4012,-89.0355,10.0,23.979,11111222 
WAVCIS,ioos:station:WAVCIS:CSI16:1,2009-05-01T14:45:00Z,29.4012,-89.0355,10.0,24.022,11111222 
WAVCIS,ioos:station:WAVCIS:CSI16:1,2009-05-01T15:00:00Z,29.4012,-89.0355,10.0,24.028,11111222 
WAVCIS,ioos:station:WAVCIS:CSI16:1,2009-05-01T15:15:00Z,29.4012,-89.0355,10.0,24.033,11111222 
WAVCIS,ioos:station:WAVCIS:CSI16:1,2009-05-01T15:30:00Z,29.4012,-89.0355,10.0,23.97,11111222 
WAVCIS,ioos:station:WAVCIS:CSI16:1,2009-05-01T15:45:00Z,29.4012,-89.0355,10.0,24.009,11111222 
WAVCIS,ioos:station:WAVCIS:CSI16:1,2009-05-01T16:00:00Z,29.4012,-89.0355,10.0,24.011,11111222 
WAVCIS,ioos:station:WAVCIS:CSI16:1,2009-05-01T16:15:00Z,29.4012,-89.0355,10.0,23.917,11111222 
WAVCIS,ioos:station:WAVCIS:CSI16:1,2009-05-01T16:30:00Z,29.4012,-89.0355,10.0,23.948,11111222 
WAVCIS,ioos:station:WAVCIS:CSI16:1,2009-05-01T16:45:00Z,29.4012,-89.0355,10.0,23.978,11111222 
WAVCIS,ioos:station:WAVCIS:CSI16:1,2009-05-01T17:00:00Z,29.4012,-89.0355,10.0,23.945,11111222 
WAVCIS,ioos:station:WAVCIS:CSI16:1,2009-05-01T17:15:00Z,29.4012,-89.0355,10.0,23.74,11111222 
WAVCIS,ioos:station:WAVCIS:CSI16:1,2009-05-01T17:30:00Z,29.4012,-89.0355,10.0,23.808,11111222 
WAVCIS,ioos:station:WAVCIS:CSI16:1,2009-05-01T17:45:00Z,29.4012,-89.0355,10.0,23.87,11111222 
WAVCIS,ioos:station:WAVCIS:CSI16:1,2009-05-01T18:00:00Z,29.4012,-89.0355,10.0,23.9,11111222 
WAVCIS,ioos:station:WAVCIS:CSI16:1,2009-05-01T18:15:00Z,29.4012,-89.0355,10.0,23.885,11111222 
WAVCIS,ioos:station:WAVCIS:CSI16:1,2009-05-01T18:30:00Z,29.4012,-89.0355,10.0,23.886,11111222 
WAVCIS,ioos:station:WAVCIS:CSI16:1,2009-05-01T18:45:00Z,29.4012,-89.0355,10.0,23.878,11111222 
WAVCIS,ioos:station:WAVCIS:CSI16:1,2009-05-01T19:00:00Z,29.4012,-89.0355,10.0,23.868,11111222 
WAVCIS,ioos:station:WAVCIS:CSI16:1,2009-05-01T19:15:00Z,29.4012,-89.0355,10.0,23.887,11111222 
WAVCIS,ioos:station:WAVCIS:CSI16:1,2009-05-01T19:30:00Z,29.4012,-89.0355,10.0,23.906,11111222 
WAVCIS,ioos:station:WAVCIS:CSI16:1,2009-05-01T19:45:00Z,29.4012,-89.0355,10.0,23.887,11111222 
WAVCIS,ioos:station:WAVCIS:CSI16:1,2009-05-01T20:00:00Z,29.4012,-89.0355,10.0,23.925,11111222 
WAVCIS,ioos:station:WAVCIS:CSI16:1,2009-05-01T20:15:00Z,29.4012,-89.0355,10.0,23.967,11111222 
WAVCIS,ioos:station:WAVCIS:CSI16:1,2009-05-01T20:30:00Z,29.4012,-89.0355,10.0,23.977,11111222 
WAVCIS,ioos:station:WAVCIS:CSI16:1,2009-05-01T20:45:00Z,29.4012,-89.0355,10.0,23.978,11111222 
WAVCIS,ioos:station:WAVCIS:CSI16:1,2009-05-01T21:00:00Z,29.4012,-89.0355,10.0,23.939,11111222 
WAVCIS,ioos:station:WAVCIS:CSI16:1,2009-05-01T21:15:00Z,29.4012,-89.0355,10.0,24.017,11111222 
WAVCIS,ioos:station:WAVCIS:CSI16:1,2009-05-01T21:30:00Z,29.4012,-89.0355,10.0,24.02,11111222 
WAVCIS,ioos:station:WAVCIS:CSI16:1,2009-05-01T21:45:00Z,29.4012,-89.0355,10.0,23.946,11111222 
WAVCIS,ioos:station:WAVCIS:CSI16:1,2009-05-01T22:00:00Z,29.4012,-89.0355,10.0,24.004,11111222 
WAVCIS,ioos:station:WAVCIS:CSI16:1,2009-05-01T22:15:00Z,29.4012,-89.0355,10.0,23.973,11111222 
WAVCIS,ioos:station:WAVCIS:CSI16:1,2009-05-01T22:30:00Z,29.4012,-89.0355,10.0,23.97,11111222 
WAVCIS,ioos:station:WAVCIS:CSI16:1,2009-05-01T22:45:00Z,29.4012,-89.0355,10.0,23.862,11111222 
WAVCIS,ioos:station:WAVCIS:CSI16:1,2009-05-01T23:00:00Z,29.4012,-89.0355,10.0,23.859,11111222 
WAVCIS,ioos:station:WAVCIS:CSI16:1,2009-05-01T23:15:00Z,29.4012,-89.0355,10.0,23.891,11111222 
WAVCIS,ioos:station:WAVCIS:CSI16:1,2009-05-01T23:30:00Z,29.4012,-89.0355,10.0,24.012,11111222 
WAVCIS,ioos:station:WAVCIS:CSI16:1,2009-05-01T23:45:00Z,29.4012,-89.0355,10.0,23.998,11111222 
WAVCIS,ioos:station:WAVCIS:CSI16:1,2009-05-02T00:00:00Z,29.4012,-89.0355,10.0,24.26,11111222 
WAVCIS,ioos:station:WAVCIS:CSI16:1,2009-05-02T00:15:00Z,29.4012,-89.0355,10.0,24.732,11111222 
WAVCIS,ioos:station:WAVCIS:CSI16:1,2009-05-02T00:30:00Z,29.4012,-89.0355,10.0,24.922,11111222 
WAVCIS,ioos:station:WAVCIS:CSI16:1,2009-05-02T00:45:00Z,29.4012,-89.0355,10.0,24.902,11111222 
WAVCIS,ioos:station:WAVCIS:CSI16:1,2009-05-02T01:00:00Z,29.4012,-89.0355,10.0,24.884,11111222 
WAVCIS,ioos:station:WAVCIS:CSI16:1,2009-05-02T01:15:00Z,29.4012,-89.0355,10.0,24.944,11111222 
WAVCIS,ioos:station:WAVCIS:CSI16:1,2009-05-02T01:30:00Z,29.4012,-89.0355,10.0,24.935,11111222 
WAVCIS,ioos:station:WAVCIS:CSI16:1,2009-05-02T01:45:00Z,29.4012,-89.0355,10.0,25.056,11111222 
WAVCIS,ioos:station:WAVCIS:CSI16:1,2009-05-02T02:00:00Z,29.4012,-89.0355,10.0,25.046,11111222 
WAVCIS,ioos:station:WAVCIS:CSI16:1,2009-05-02T02:15:00Z,29.4012,-89.0355,10.0,25.086,11111222 
WAVCIS,ioos:station:WAVCIS:CSI16:1,2009-05-02T02:30:00Z,29.4012,-89.0355,10.0,25.074,11111222 
WAVCIS,ioos:station:WAVCIS:CSI16:1,2009-05-02T02:45:00Z,29.4012,-89.0355,10.0,25.071,11111222 
WAVCIS,ioos:station:WAVCIS:CSI16:1,2009-05-02T03:00:00Z,29.4012,-89.0355,10.0,24.941,11111222 
WAVCIS,ioos:station:WAVCIS:CSI16:1,2009-05-02T03:15:00Z,29.4012,-89.0355,10.0,24.882,11111222 
WAVCIS,ioos:station:WAVCIS:CSI16:1,2009-05-02T03:30:00Z,29.4012,-89.0355,10.0,24.827,11111222 
WAVCIS,ioos:station:WAVCIS:CSI16:1,2009-05-02T03:45:00Z,29.4012,-89.0355,10.0,24.793,11111222 
WAVCIS,ioos:station:WAVCIS:CSI16:1,2009-05-02T04:00:00Z,29.4012,-89.0355,10.0,24.769,11111222 
WAVCIS,ioos:station:WAVCIS:CSI16:1,2009-05-02T04:15:00Z,29.4012,-89.0355,10.0,24.721,11111222 
WAVCIS,ioos:station:WAVCIS:CSI16:1,2009-05-02T04:30:00Z,29.4012,-89.0355,10.0,24.633,11111222 
WAVCIS,ioos:station:WAVCIS:CSI16:1,2009-05-02T04:45:00Z,29.4012,-89.0355,10.0,24.534,11111222 
WAVCIS,ioos:station:WAVCIS:CSI16:1,2009-05-02T05:00:00Z,29.4012,-89.0355,10.0,24.453,11111222 
WAVCIS,ioos:station:WAVCIS:CSI16:1,2009-05-02T05:15:00Z,29.4012,-89.0355,10.0,24.235,11111222 
WAVCIS,ioos:station:WAVCIS:CSI16:1,2009-05-02T05:30:00Z,29.4012,-89.0355,10.0,24.341,11111222 
WAVCIS,ioos:station:WAVCIS:CSI16:1,2009-05-02T05:45:00Z,29.4012,-89.0355,10.0,24.338,11111222 
WAVCIS,ioos:station:WAVCIS:CSI16:1,2009-05-02T06:00:00Z,29.4012,-89.0355,10.0,24.268,11111222 
WAVCIS,ioos:station:WAVCIS:CSI16:1,2009-05-02T06:15:00Z,29.4012,-89.0355,10.0,24.133,11111222 
WAVCIS,ioos:station:WAVCIS:CSI16:1,2009-05-02T06:30:00Z,29.4012,-89.0355,10.0,24.121,11111222 
WAVCIS,ioos:station:WAVCIS:CSI16:1,2009-05-02T06:45:00Z,29.4012,-89.0355,10.0,23.932,11111222 
WAVCIS,ioos:station:WAVCIS:CSI16:1,2009-05-02T07:00:00Z,29.4012,-89.0355,10.0,24.141,11111222 
WAVCIS,ioos:station:WAVCIS:CSI16:1,2009-05-02T07:15:00Z,29.4012,-89.0355,10.0,24.377,11111222 
WAVCIS,ioos:station:WAVCIS:CSI16:1,2009-05-02T07:30:00Z,29.4012,-89.0355,10.0,24.439,11111222 
WAVCIS,ioos:station:WAVCIS:CSI16:1,2009-05-02T07:45:00Z,29.4012,-89.0355,10.0,24.438,11111222 
WAVCIS,ioos:station:WAVCIS:CSI16:1,2009-05-02T08:00:00Z,29.4012,-89.0355,10.0,24.348,11111222 
WAVCIS,ioos:station:WAVCIS:CSI16:1,2009-05-02T08:15:00Z,29.4012,-89.0355,10.0,24.454,11111222 
WAVCIS,ioos:station:WAVCIS:CSI16:1,2009-05-02T08:30:00Z,29.4012,-89.0355,10.0,24.447,11111222 
WAVCIS,ioos:station:WAVCIS:CSI16:1,2009-05-02T08:45:00Z,29.4012,-89.0355,10.0,24.465,11111222 
WAVCIS,ioos:station:WAVCIS:CSI16:1,2009-05-02T09:00:00Z,29.4012,-89.0355,10.0,24.501,11111222 
WAVCIS,ioos:station:WAVCIS:CSI16:1,2009-05-02T09:15:00Z,29.4012,-89.0355,10.0,24.517,11111222 
WAVCIS,ioos:station:WAVCIS:CSI16:1,2009-05-02T09:30:00Z,29.4012,-89.0355,10.0,24.472,11111222 
WAVCIS,ioos:station:WAVCIS:CSI16:1,2009-05-02T09:45:00Z,29.4012,-89.0355,10.0,24.496,11111222 
WAVCIS,ioos:station:WAVCIS:CSI16:1,2009-05-02T10:00:00Z,29.4012,-89.0355,10.0,24.457,11111222 
WAVCIS,ioos:station:WAVCIS:CSI16:1,2009-05-02T10:15:00Z,29.4012,-89.0355,10.0,24.494,11111222 
WAVCIS,ioos:station:WAVCIS:CSI16:1,2009-05-02T10:30:00Z,29.4012,-89.0355,10.0,24.57,11111222 
WAVCIS,ioos:station:WAVCIS:CSI16:1,2009-05-02T10:45:00Z,29.4012,-89.0355,10.0,24.585,11111222 
WAVCIS,ioos:station:WAVCIS:CSI16:1,2009-05-02T11:00:00Z,29.4012,-89.0355,10.0,24.528,11111222 
WAVCIS,ioos:station:WAVCIS:CSI16:1,2009-05-02T11:15:00Z,29.4012,-89.0355,10.0,24.473,11111222 
WAVCIS,ioos:station:WAVCIS:CSI16:1,2009-05-02T11:30:00Z,29.4012,-89.0355,10.0,24.471,11111222 
WAVCIS,ioos:station:WAVCIS:CSI16:1,2009-05-02T11:45:00Z,29.4012,-89.0355,10.0,24.433,11111222 
WAVCIS,ioos:station:WAVCIS:CSI16:1,2009-05-02T12:00:00Z,29.4012,-89.0355,10.0,24.446,11111222 
WAVCIS,ioos:station:WAVCIS:CSI16:1,2009-05-02T12:15:00Z,29.4012,-89.0355,10.0,24.432,11111222 
WAVCIS,ioos:station:WAVCIS:CSI16:1,2009-05-02T12:30:00Z,29.4012,-89.0355,10.0,24.422,11111222 
WAVCIS,ioos:station:WAVCIS:CSI16:1,2009-05-02T12:45:00Z,29.4012,-89.0355,10.0,24.458,11111222 
WAVCIS,ioos:station:WAVCIS:CSI16:1,2009-05-02T13:00:00Z,29.4012,-89.0355,10.0,24.52,11111222 
WAVCIS,ioos:station:WAVCIS:CSI16:1,2009-05-02T13:15:00Z,29.4012,-89.0355,10.0,24.598,11111222 
WAVCIS,ioos:station:WAVCIS:CSI16:1,2009-05-02T13:30:00Z,29.4012,-89.0355,10.0,24.519,11111222 
WAVCIS,ioos:station:WAVCIS:CSI16:1,2009-05-02T13:45:00Z,29.4012,-89.0355,10.0,24.528,11111222 
WAVCIS,ioos:station:WAVCIS:CSI16:1,2009-05-02T14:00:00Z,29.4012,-89.0355,10.0,24.546,11111222 
WAVCIS,ioos:station:WAVCIS:CSI16:1,2009-05-02T14:15:00Z,29.4012,-89.0355,10.0,24.551,11111222 
WAVCIS,ioos:station:WAVCIS:CSI16:1,2009-05-02T14:30:00Z,29.4012,-89.0355,10.0,24.448,11111222 
WAVCIS,ioos:station:WAVCIS:CSI16:1,2009-05-02T14:45:00Z,29.4012,-89.0355,10.0,24.344,11111222 
WAVCIS,ioos:station:WAVCIS:CSI16:1,2009-05-02T15:00:00Z,29.4012,-89.0355,10.0,24.445,11111222 
WAVCIS,ioos:station:WAVCIS:CSI16:1,2009-05-02T15:15:00Z,29.4012,-89.0355,10.0,24.351,11111222 
WAVCIS,ioos:station:WAVCIS:CSI16:1,2009-05-02T15:30:00Z,29.4012,-89.0355,10.0,24.302,11111222 
WAVCIS,ioos:station:WAVCIS:CSI16:1,2009-05-02T15:45:00Z,29.4012,-89.0355,10.0,23.871,11111222 
WAVCIS,ioos:station:WAVCIS:CSI16:1,2009-05-02T16:00:00Z,29.4012,-89.0355,10.0,24.338,11111222 
WAVCIS,ioos:station:WAVCIS:CSI16:1,2009-05-02T16:15:00Z,29.4012,-89.0355,10.0,24.355,11111222 
WAVCIS,ioos:station:WAVCIS:CSI16:1,2009-05-02T16:30:00Z,29.4012,-89.0355,10.0,24.368,11111222 
WAVCIS,ioos:station:WAVCIS:CSI16:1,2009-05-02T16:45:00Z,29.4012,-89.0355,10.0,24.426,11111222 
WAVCIS,ioos:station:WAVCIS:CSI16:1,2009-05-02T17:00:00Z,29.4012,-89.0355,10.0,24.407,11111222 
WAVCIS,ioos:station:WAVCIS:CSI16:1,2009-05-02T17:15:00Z,29.4012,-89.0355,10.0,24.454,11111222 
WAVCIS,ioos:station:WAVCIS:CSI16:1,2009-05-02T17:30:00Z,29.4012,-89.0355,10.0,24.523,11111222 
WAVCIS,ioos:station:WAVCIS:CSI16:1,2009-05-02T17:45:00Z,29.4012,-89.0355,10.0,24.525,11111222 
WAVCIS,ioos:station:WAVCIS:CSI16:1,2009-05-02T18:00:00Z,29.4012,-89.0355,10.0,24.75,11111222 
WAVCIS,ioos:station:WAVCIS:CSI16:1,2009-05-02T18:15:00Z,29.4012,-89.0355,10.0,24.507,11111222 
WAVCIS,ioos:station:WAVCIS:CSI16:1,2009-05-02T18:30:00Z,29.4012,-89.0355,10.0,25.425,11111222 
WAVCIS,ioos:station:WAVCIS:CSI16:1,2009-05-02T18:45:00Z,29.4012,-89.0355,10.0,24.768,11111222 
WAVCIS,ioos:station:WAVCIS:CSI16:1,2009-05-02T19:00:00Z,29.4012,-89.0355,10.0,24.062,11111222 
WAVCIS,ioos:station:WAVCIS:CSI16:1,2009-05-02T19:15:00Z,29.4012,-89.0355,10.0,25.039,11111222 
WAVCIS,ioos:station:WAVCIS:CSI16:1,2009-05-02T19:30:00Z,29.4012,-89.0355,10.0,25.18,11111222 
WAVCIS,ioos:station:WAVCIS:CSI16:1,2009-05-02T19:45:00Z,29.4012,-89.0355,10.0,25.31,11111222 
WAVCIS,ioos:station:WAVCIS:CSI16:1,2009-05-02T20:00:00Z,29.4012,-89.0355,10.0,25.513,11111222 
WAVCIS,ioos:station:WAVCIS:CSI16:1,2009-05-02T20:15:00Z,29.4012,-89.0355,10.0,25.319,11111222 
WAVCIS,ioos:station:WAVCIS:CSI16:1,2009-05-02T20:30:00Z,29.4012,-89.0355,10.0,25.505,11111222 
WAVCIS,ioos:station:WAVCIS:CSI16:1,2009-05-02T20:45:00Z,29.4012,-89.0355,10.0,25.344,11111222 
WAVCIS,ioos:station:WAVCIS:CSI16:1,2009-05-02T21:00:00Z,29.4012,-89.0355,10.0,25.438,11111222 
WAVCIS,ioos:station:WAVCIS:CSI16:1,2009-05-02T21:15:00Z,29.4012,-89.0355,10.0,25.549,11111222 
WAVCIS,ioos:station:WAVCIS:CSI16:1,2009-05-02T21:30:00Z,29.4012,-89.0355,10.0,24.408,11111222 
WAVCIS,ioos:station:WAVCIS:CSI16:1,2009-05-02T21:45:00Z,29.4012,-89.0355,10.0,25.77,11111222 
WAVCIS,ioos:station:WAVCIS:CSI16:1,2009-05-02T22:00:00Z,29.4012,-89.0355,10.0,25.465,11111222 
WAVCIS,ioos:station:WAVCIS:CSI16:1,2009-05-02T22:15:00Z,29.4012,-89.0355,10.0,24.658,11111222 
WAVCIS,ioos:station:WAVCIS:CSI16:1,2009-05-02T22:30:00Z,29.4012,-89.0355,10.0,24.866,11111222 
WAVCIS,ioos:station:WAVCIS:CSI16:1,2009-05-02T22:45:00Z,29.4012,-89.0355,10.0,25.021,11111222 
WAVCIS,ioos:station:WAVCIS:CSI16:1,2009-05-02T23:00:00Z,29.4012,-89.0355,10.0,24.416,11111222 
WAVCIS,ioos:station:WAVCIS:CSI16:1,2009-05-02T23:15:00Z,29.4012,-89.0355,10.0,24.244,11111222 
WAVCIS,ioos:station:WAVCIS:CSI16:1,2009-05-02T23:30:00Z,29.4012,-89.0355,10.0,24.464,11111222 
WAVCIS,ioos:station:WAVCIS:CSI16:1,2009-05-02T23:45:00Z,29.4012,-89.0355,10.0,24.538,11111222 
WAVCIS,ioos:station:WAVCIS:CSI16:1,2009-05-03T00:00:00Z,29.4012,-89.0355,10.0,24.761,11111222 
WAVCIS,ioos:station:WAVCIS:CSI16:1,2009-05-03T00:15:00Z,29.4012,-89.0355,10.0,24.762,11111222 
WAVCIS,ioos:station:WAVCIS:CSI16:1,2009-05-03T00:30:00Z,29.4012,-89.0355,10.0,24.614,11111222 
WAVCIS,ioos:station:WAVCIS:CSI16:1,2009-05-03T00:45:00Z,29.4012,-89.0355,10.0,24.683,11111222 
WAVCIS,ioos:station:WAVCIS:CSI16:1,2009-05-03T01:00:00Z,29.4012,-89.0355,10.0,24.579,11111222 
WAVCIS,ioos:station:WAVCIS:CSI16:1,2009-05-03T01:15:00Z,29.4012,-89.0355,10.0,24.505,11111222 
WAVCIS,ioos:station:WAVCIS:CSI16:1,2009-05-03T01:30:00Z,29.4012,-89.0355,10.0,24.406,11111222 
WAVCIS,ioos:station:WAVCIS:CSI16:1,2009-05-03T01:45:00Z,29.4012,-89.0355,10.0,24.326,11111222 
WAVCIS,ioos:station:WAVCIS:CSI16:1,2009-05-03T02:00:00Z,29.4012,-89.0355,10.0,24.315,11111222 
WAVCIS,ioos:station:WAVCIS:CSI16:1,2009-05-03T02:15:00Z,29.4012,-89.0355,10.0,24.255,11111222 
WAVCIS,ioos:station:WAVCIS:CSI16:1,2009-05-03T02:30:00Z,29.4012,-89.0355,10.0,24.208,11111222 
WAVCIS,ioos:station:WAVCIS:CSI16:1,2009-05-03T02:45:00Z,29.4012,-89.0355,10.0,24.144,11111222 
WAVCIS,ioos:station:WAVCIS:CSI16:1,2009-05-03T03:00:00Z,29.4012,-89.0355,10.0,24.059,11111222 
WAVCIS,ioos:station:WAVCIS:CSI16:1,2009-05-03T03:15:00Z,29.4012,-89.0355,10.0,24.035,11111222 
WAVCIS,ioos:station:WAVCIS:CSI16:1,2009-05-03T03:30:00Z,29.4012,-89.0355,10.0,23.969,11111222 
WAVCIS,ioos:station:WAVCIS:CSI16:1,2009-05-03T03:45:00Z,29.4012,-89.0355,10.0,23.907,11111222 
WAVCIS,ioos:station:WAVCIS:CSI16:1,2009-05-03T04:00:00Z,29.4012,-89.0355,10.0,23.848,11111222 
WAVCIS,ioos:station:WAVCIS:CSI16:1,2009-05-03T04:15:00Z,29.4012,-89.0355,10.0,23.754,11111222 
WAVCIS,ioos:station:WAVCIS:CSI16:1,2009-05-03T04:30:00Z,29.4012,-89.0355,10.0,23.721,11111222 
WAVCIS,ioos:station:WAVCIS:CSI16:1,2009-05-03T04:45:00Z,29.4012,-89.0355,10.0,23.668,11111222 
WAVCIS,ioos:station:WAVCIS:CSI16:1,2009-05-03T05:00:00Z,29.4012,-89.0355,10.0,23.54,11111222 
WAVCIS,ioos:station:WAVCIS:CSI16:1,2009-05-03T05:15:00Z,29.4012,-89.0355,10.0,23.441,11111222 
WAVCIS,ioos:station:WAVCIS:CSI16:1,2009-05-03T05:30:00Z,29.4012,-89.0355,10.0,23.428,11111222 
WAVCIS,ioos:station:WAVCIS:CSI16:1,2009-05-03T05:45:00Z,29.4012,-89.0355,10.0,23.362,11111222 
WAVCIS,ioos:station:WAVCIS:CSI16:1,2009-05-03T06:00:00Z,29.4012,-89.0355,10.0,23.328,11111222 
WAVCIS,ioos:station:WAVCIS:CSI16:1,2009-05-03T06:15:00Z,29.4012,-89.0355,10.0,23.299,11111222 
WAVCIS,ioos:station:WAVCIS:CSI16:1,2009-05-03T06:30:00Z,29.4012,-89.0355,10.0,23.282,11111222 
WAVCIS,ioos:station:WAVCIS:CSI16:1,2009-05-03T06:45:00Z,29.4012,-89.0355,10.0,23.253,11111222 
WAVCIS,ioos:station:WAVCIS:CSI16:1,2009-05-03T07:00:00Z,29.4012,-89.0355,10.0,23.17,11111222 
WAVCIS,ioos:station:WAVCIS:CSI16:1,2009-05-03T07:15:00Z,29.4012,-89.0355,10.0,23.087,11111222 
WAVCIS,ioos:station:WAVCIS:CSI16:1,2009-05-03T07:30:00Z,29.4012,-89.0355,10.0,23.077,11111222 
WAVCIS,ioos:station:WAVCIS:CSI16:1,2009-05-03T07:45:00Z,29.4012,-89.0355,10.0,23.081,11111222 
WAVCIS,ioos:station:WAVCIS:CSI16:1,2009-05-03T08:00:00Z,29.4012,-89.0355,10.0,23.053,11111222 
WAVCIS,ioos:station:WAVCIS:CSI16:1,2009-05-03T08:15:00Z,29.4012,-89.0355,10.0,23.096,11111222 
WAVCIS,ioos:station:WAVCIS:CSI16:1,2009-05-03T08:30:00Z,29.4012,-89.0355,10.0,22.994,11111222 
WAVCIS,ioos:station:WAVCIS:CSI16:1,2009-05-03T08:45:00Z,29.4012,-89.0355,10.0,22.93,11111222 
WAVCIS,ioos:station:WAVCIS:CSI16:1,2009-05-03T09:00:00Z,29.4012,-89.0355,10.0,22.97,11111222 
WAVCIS,ioos:station:WAVCIS:CSI16:1,2009-05-03T09:15:00Z,29.4012,-89.0355,10.0,23.051,11111222 
WAVCIS,ioos:station:WAVCIS:CSI16:1,2009-05-03T09:30:00Z,29.4012,-89.0355,10.0,23.42,11111222 
WAVCIS,ioos:station:WAVCIS:CSI16:1,2009-05-03T09:45:00Z,29.4012,-89.0355,10.0,23.601,11111222 
WAVCIS,ioos:station:WAVCIS:CSI16:1,2009-05-03T10:00:00Z,29.4012,-89.0355,10.0,23.65,11111222 
WAVCIS,ioos:station:WAVCIS:CSI16:1,2009-05-03T10:15:00Z,29.4012,-89.0355,10.0,23.652,11111222 
WAVCIS,ioos:station:WAVCIS:CSI16:1,2009-05-03T10:30:00Z,29.4012,-89.0355,10.0,23.642,11111222 
WAVCIS,ioos:station:WAVCIS:CSI16:1,2009-05-03T10:45:00Z,29.4012,-89.0355,10.0,23.578,11111222 
WAVCIS,ioos:station:WAVCIS:CSI16:1,2009-05-03T11:00:00Z,29.4012,-89.0355,10.0,23.56,11111222 
WAVCIS,ioos:station:WAVCIS:CSI16:1,2009-05-03T11:15:00Z,29.4012,-89.0355,10.0,23.577,11111222 
WAVCIS,ioos:station:WAVCIS:CSI16:1,2009-05-03T11:30:00Z,29.4012,-89.0355,10.0,23.577,11111222 
WAVCIS,ioos:station:WAVCIS:CSI16:1,2009-05-03T11:45:00Z,29.4012,-89.0355,10.0,23.223,11111222 
WAVCIS,ioos:station:WAVCIS:CSI16:1,2009-05-03T12:00:00Z,29.4012,-89.0355,10.0,23.447,11111222 
WAVCIS,ioos:station:WAVCIS:CSI16:1,2009-05-03T12:15:00Z,29.4012,-89.0355,10.0,23.508,11111222 
WAVCIS,ioos:station:WAVCIS:CSI16:1,2009-05-03T12:30:00Z,29.4012,-89.0355,10.0,23.464,11111222 
WAVCIS,ioos:station:WAVCIS:CSI16:1,2009-05-03T12:45:00Z,29.4012,-89.0355,10.0,23.473,11111222 
WAVCIS,ioos:station:WAVCIS:CSI16:1,2009-05-03T13:00:00Z,29.4012,-89.0355,10.0,23.476,11111222 
WAVCIS,ioos:station:WAVCIS:CSI16:1,2009-05-03T13:15:00Z,29.4012,-89.0355,10.0,23.448,11111222 
WAVCIS,ioos:station:WAVCIS:CSI16:1,2009-05-03T13:30:00Z,29.4012,-89.0355,10.0,23.317,11111222 
WAVCIS,ioos:station:WAVCIS:CSI16:1,2009-05-03T13:45:00Z,29.4012,-89.0355,10.0,23.18,11111222 
WAVCIS,ioos:station:WAVCIS:CSI16:1,2009-05-03T14:00:00Z,29.4012,-89.0355,10.0,23.281,11111222 
WAVCIS,ioos:station:WAVCIS:CSI16:1,2009-05-03T14:15:00Z,29.4012,-89.0355,10.0,23.352,11111222 
WAVCIS,ioos:station:WAVCIS:CSI16:1,2009-05-03T14:30:00Z,29.4012,-89.0355,10.0,23.531,11111222 
WAVCIS,ioos:station:WAVCIS:CSI16:1,2009-05-03T14:45:00Z,29.4012,-89.0355,10.0,23.7,11111222 